Theta_e
345 346 345 345 347 347 347 347 346 346 346 346 346 346 345 346 346 345 346 348 348 348 347 346 347 348 348 348 348 349 351 352 350 350 349 347 347 347 348 347 346 345 344 343 342 340 339 340 345 347 346 346 345 338 335 340 344 345 345 344 343 342 342 342 339 337 335 335 336 338 340 342 343 342 341 341 339 339 340 341 341 341 342 342 343
344 345 346 347 347 348 350 349 347 346 346 344 344 344 342 344 345 344 344 347 348 347 346 346 347 347 347 347 348 349 350 352 351 351 350 348 347 348 347 346 344 344 344 345 345 344 343 341 342 346 346 346 347 344 336 335 339 343 344 345 344 343 343 342 340 337 335 334 334 334 334 335 337 337 337 337 336 336 337 339 339 339 340 341 341
347 347 347 345 345 348 351 349 348 346 344 343 344 344 343 341 343 344 344 345 345 345 346 346 346 347 347 346 347 348 349 351 351 350 350 349 348 349 348 347 345 343 342 344 345 345 346 345 343 344 346 345 346 347 341 334 335 340 342 344 344 343 343 342 341 339 336 335 334 333 332 332 333 333 333 334 334 334 334 335 336 337 338 339 339
348 347 345 343 345 348 350 348 347 346 345 344 344 344 346 344 343 343 341 341 341 341 343 345 346 346 346 346 347 348 348 349 350 350 349 349 349 349 349 349 349 345 341 342 344 345 346 347 346 342 343 344 343 346 344 337 334 337 340 342 342 342 342 341 340 339 337 336 334 334 334 334 334 333 333 333 333 333 333 334 334 335 336 337 337
347 345 344 344 346 349 351 348 345 346 346 346 343 341 345 346 345 342 338 336 337 336 338 342 345 347 347 346 347 347 348 349 349 349 349 350 349 349 349 350 351 350 345 342 342 343 344 346 346 344 342 342 341 341 341 338 335 335 336 339 341 341 340 340 340 339 338 337 335 335 335 335 336 335 335 335 335 336 336 336 336 337 337 337 337
350 347 345 344 347 350 350 347 341 341 343 344 344 341 342 344 343 342 339 337 336 336 336 338 342 347 348 346 345 346 347 348 348 348 349 349 349 348 349 349 349 350 350 348 344 343 344 345 346 346 343 342 341 338 337 337 335 335 335 336 339 340 339 339 339 338 338 337 337 336 336 336 336 336 336 336 336 337 337 338 338 339 339 338 338
352 352 350 349 351 351 349 347 343 340 341 341 342 341 340 342 343 343 342 340 339 338 336 339 341 345 349 347 344 344 346 347 347 348 348 349 349 348 349 349 349 348 350 352 349 345 345 345 346 347 346 343 342 340 337 336 335 334 334 335 336 338 340 340 339 337 336 337 337 336 336 336 336 336 336 335 335 335 336 337 338 338 338 338 337
352 353 353 353 353 353 351 351 348 345 342 341 341 342 342 343 345 344 343 342 342 343 340 338 340 344 349 351 348 346 347 347 346 347 348 348 348 349 349 349 350 349 348 351 350 348 347 347 347 347 348 346 344 342 341 339 337 335 335 335 335 336 337 340 340 337 336 336 337 336 336 335 335 336 336 336 335 334 334 335 336 337 337 336 335
353 353 354 354 354 353 352 351 349 348 345 344 344 344 345 346 345 343 343 341 341 345 342 333 333 341 347 351 352 349 349 349 348 348 347 347 348 348 348 348 349 349 349 350 350 350 350 349 349 348 347 348 346 344 342 341 340 339 337 337 336 336 336 338 339 338 336 335 336 336 336 336 335 335 335 336 335 334 334 334 335 335 335 334 333
350 351 353 353 353 352 351 350 349 347 346 345 346 346 347 346 344 341 341 342 342 344 342 336 337 343 345 348 351 351 351 351 350 349 347 346 348 348 348 349 348 349 350 350 349 350 351 350 351 351 349 348 348 346 344 342 341 340 340 339 338 337 336 336 337 337 336 335 336 336 337 337 336 336 336 336 337 337 336 336 335 335 335 333 332
349 347 349 350 351 350 349 348 347 346 345 345 345 346 346 345 344 343 343 344 344 344 343 343 344 345 345 346 348 350 351 351 350 350 349 349 349 348 349 349 348 349 349 350 350 349 350 351 351 353 352 350 348 347 346 344 342 341 341 340 339 338 337 337 337 336 336 335 335 336 336 337 337 338 339 339 339 339 338 338 337 337 336 335 334
347 342 341 344 346 348 348 346 345 345 344 344 345 345 345 344 344 343 343 343 342 342 342 344 344 344 344 344 346 348 350 351 350 350 350 350 350 350 350 350 349 348 349 350 350 349 350 351 352 353 353 352 350 347 347 346 344 343 342 341 340 339 338 338 337 337 336 336 336 336 336 337 338 339 340 340 340 339 339 338 338 339 339 338 338
348 345 343 342 342 345 346 346 345 344 343 343 343 344 344 343 342 342 341 341 341 341 342 343 343 344 344 344 346 347 349 350 351 350 350 350 349 349 349 350 350 349 349 349 349 349 349 350 352 352 353 353 351 348 347 346 345 345 345 343 341 339 338 338 338 338 338 338 338 339 339 339 340 340 341 341 342 342 341 340 340 339 340 340 341
350 350 349 348 347 346 347 346 346 344 343 343 342 342 342 341 341 341 341 342 341 342 343 343 344 345 345 346 347 347 347 349 350 350 350 349 348 347 347 349 350 349 348 349 349 349 349 349 351 352 352 352 351 351 351 349 348 347 346 346 343 340 338 337 337 337 338 339 340 340 341 341 341 341 342 342 342 342 342 343 343 342 342 342 342
347 347 348 349 349 348 348 348 347 346 345 344 343 343 342 342 342 341 342 342 343 343 343 344 344 344 345 346 345 344 346 349 350 350 350 349 347 347 346 347 348 349 348 348 349 349 350 349 348 350 351 351 351 351 352 353 352 349 347 347 345 342 339 336 335 336 337 339 340 340 340 340 341 341 341 341 341 342 343 345 345 345 344 343 343
344 344 344 345 346 346 346 346 347 346 346 345 344 344 343 343 343 343 343 343 344 344 344 344 344 343 343 344 343 342 344 345 347 350 350 348 347 346 347 347 347 348 349 348 348 349 349 348 348 349 351 352 352 350 349 351 353 352 349 348 347 345 342 337 335 335 335 337 338 338 338 339 339 340 340 341 342 345 345 346 346 346 345 344 344
344 343 343 343 344 343 343 344 345 347 347 348 348 347 347 345 344 344 345 345 345 345 344 344 344 345 343 342 343 343 342 341 343 346 347 348 347 345 347 349 348 348 349 349 349 349 348 348 348 348 348 350 353 352 350 350 352 352 351 350 347 346 345 341 337 335 335 336 336 337 338 338 339 339 341 342 344 345 346 346 346 345 345 345 345
344 344 344 344 345 345 344 345 345 346 349 351 351 350 349 348 346 345 345 345 344 343 344 344 344 345 345 343 342 341 341 341 343 345 346 347 350 349 349 350 349 347 347 347 349 349 349 348 348 349 349 349 351 353 352 351 351 351 351 350 349 347 345 343 340 337 335 335 335 337 338 339 340 341 342 344 345 345 345 345 345 345 345 345 345
343 343 344 345 345 345 345 345 345 345 347 350 350 350 348 348 347 345 344 343 342 341 343 343 342 344 344 343 343 342 342 342 343 346 347 347 349 349 347 347 348 347 345 345 346 347 349 349 348 349 349 349 350 351 352 352 352 352 351 350 350 349 347 345 343 341 339 338 338 339 340 340 341 341 343 344 344 345 345 345 345 345 345 345 345
343 343 343 344 344 344 344 345 345 345 346 348 348 348 347 346 345 343 341 340 341 342 342 342 342 343 343 344 345 345 344 345 346 348 348 346 346 346 345 345 345 345 344 344 344 346 350 350 348 348 348 349 351 351 351 351 351 352 352 351 350 350 349 347 346 344 343 341 340 340 340 340 340 341 343 344 344 344 344 345 345 345 345 345 345
341 341 342 342 342 343 343 343 343 342 343 345 345 345 344 344 344 342 341 341 342 344 344 344 343 343 343 344 345 344 344 346 347 348 346 345 343 342 342 343 343 344 345 344 343 344 347 349 348 347 347 348 349 350 350 351 350 352 352 352 351 350 349 349 348 346 343 341 340 339 339 339 340 341 342 344 343 343 344 344 344 343 343 343 344
340 340 341 340 339 341 341 341 341 341 342 342 342 343 343 343 343 342 342 342 343 343 344 344 343 343 343 344 343 343 343 344 345 346 346 344 343 342 341 340 339 342 344 344 343 343 344 347 348 347 348 348 348 349 349 350 351 351 352 353 352 350 349 349 348 347 345 342 339 338 337 337 338 340 341 342 343 342 343 344 343 342 341 342 343
339 339 339 338 338 339 339 339 339 339 340 339 339 339 339 339 339 340 342 342 342 343 343 343 343 343 343 343 342 342 343 345 345 344 344 345 343 342 342 340 339 340 341 344 346 343 341 345 348 348 348 348 347 347 348 350 351 351 352 352 353 352 350 349 347 346 346 344 341 338 336 335 335 337 339 341 341 341 342 342 342 341 340 340 342
339 339 338 338 339 339 339 338 337 337 337 337 337 337 337 337 337 339 341 342 342 344 345 345 343 343 343 342 341 341 343 345 345 343 343 344 343 342 342 341 340 340 342 344 343 339 338 343 345 347 346 346 347 346 346 347 349 351 352 351 352 352 351 350 349 347 346 344 342 339 337 336 336 335 336 338 338 339 339 339 339 339 339 339 340
338 338 338 338 338 339 338 338 337 337 337 337 337 337 337 337 337 337 338 339 340 342 344 344 341 341 341 340 340 341 341 341 342 341 340 340 342 343 343 342 341 341 343 345 342 339 340 342 343 345 347 346 346 346 345 345 347 350 352 352 351 351 351 350 350 348 347 345 343 341 338 338 338 337 336 336 336 337 337 338 338 338 338 339 339
337 338 338 338 338 338 337 337 337 337 337 337 336 336 337 336 336 336 336 337 338 339 341 342 341 341 341 341 341 341 341 340 340 340 339 338 338 342 344 343 342 342 343 344 344 343 342 340 341 345 349 349 345 345 346 347 348 349 351 352 351 350 350 350 350 349 347 346 344 342 340 338 338 338 338 337 336 337 337 338 339 339 339 339 340
337 337 338 338 337 337 337 336 336 336 336 336 335 335 336 335 335 335 336 336 337 338 338 338 338 337 338 339 340 340 340 340 339 338 339 338 336 337 341 342 343 343 342 343 345 345 342 340 341 344 348 350 348 346 345 346 347 348 349 350 351 350 350 348 347 345 344 342 341 340 340 340 340 340 340 339 338 337 337 338 338 339 339 339 340
337 337 337 337 337 337 336 336 335 335 335 335 335 335 335 335 335 334 335 335 336 337 337 336 335 335 336 336 337 339 339 338 337 337 339 340 338 336 337 338 341 343 342 342 343 343 342 343 343 343 344 348 348 347 347 346 347 349 348 349 349 350 349 348 346 345 341 339 338 338 338 340 341 342 342 342 340 338 338 338 338 338 338 339 341
336 336 336 336 336 336 336 336 335 335 334 334 334 334 334 334 334 333 334 335 335 335 336 336 335 335 335 335 336 339 338 337 336 337 338 339 340 339 337 336 338 342 343 343 342 341 341 341 342 343 343 344 346 346 345 345 347 348 347 348 350 350 350 349 348 347 342 338 340 341 340 341 342 343 343 342 341 339 338 338 338 338 338 340 343
336 336 335 336 336 335 335 335 335 334 334 334 333 333 334 335 334 334 333 333 332 333 334 335 334 332 333 333 335 337 337 336 336 336 337 338 339 341 341 339 339 340 340 341 342 341 339 338 339 342 342 343 346 345 343 343 345 346 346 347 349 349 350 349 349 348 346 343 342 342 343 343 343 345 344 343 341 340 339 339 338 339 340 343 344
335 335 335 335 335 334 334 334 333 333 333 333 333 333 333 335 335 335 334 332 334 335 334 334 334 333 333 332 333 335 335 335 335 336 336 337 338 339 340 339 339 338 337 338 341 340 337 338 339 339 341 343 345 345 343 343 343 345 347 347 346 348 349 349 349 349 348 345 343 342 343 344 344 345 344 343 341 339 339 339 339 341 343 343 343
334 334 334 335 334 334 334 333 333 333 333 333 333 333 334 336 336 336 335 335 337 337 335 333 334 334 332 332 332 333 333 333 334 335 335 336 337 337 338 338 339 338 337 339 341 340 338 338 339 339 340 343 345 344 344 342 342 343 346 348 348 349 351 351 350 349 347 346 345 345 344 344 343 343 342 341 340 340 340 341 342 343 343 343 343
334 334 334 334 334 334 334 333 334 334 335 335 334 334 335 336 336 336 336 336 336 336 335 333 332 332 331 331 332 332 332 332 333 333 334 334 335 336 336 337 339 339 338 338 340 341 340 338 339 340 340 341 344 345 342 341 341 343 345 348 349 349 352 353 351 349 348 347 347 347 346 344 343 342 341 341 342 342 343 344 344 343 343 343 344
334 334 334 333 334 334 334 334 334 335 336 336 335 335 334 334 336 336 335 335 335 336 335 332 330 330 330 331 331 331 331 331 331 332 332 333 334 334 333 335 338 338 338 338 339 341 342 340 339 340 340 341 343 343 341 340 341 343 345 347 347 348 352 353 352 352 351 349 348 349 348 345 342 343 343 343 344 344 345 345 344 344 344 345 344
333 333 333 334 334 334 335 335 335 336 337 336 336 336 334 335 337 337 335 335 336 336 335 331 329 330 330 330 330 330 330 330 330 330 330 331 332 334 333 333 335 336 337 339 339 340 342 341 340 340 341 341 342 342 342 341 340 341 344 345 346 348 352 353 354 355 352 351 350 349 347 344 343 344 343 343 344 344 344 344 344 344 345 345 345
331 332 332 333 334 334 334 335 336 337 337 336 336 335 334 335 337 337 335 335 335 335 332 329 329 329 329 329 329 329 328 328 328 328 329 329 330 332 332 332 333 334 335 338 338 339 341 341 341 341 341 342 342 342 342 342 342 342 343 345 345 347 351 354 355 354 351 351 350 348 347 346 344 344 343 343 344 343 344 345 345 345 345 345 345
330 330 330 331 331 332 332 333 336 337 335 333 334 334 334 335 336 336 336 335 334 333 330 329 329 328 329 329 328 327 327 327 327 327 327 327 328 329 331 333 334 334 334 336 338 338 340 341 342 341 341 341 341 341 342 342 342 342 343 345 344 347 351 352 351 351 350 352 351 348 348 347 346 345 344 344 345 345 345 346 345 345 345 345 345
329 329 329 329 329 330 330 331 333 334 333 333 333 334 334 335 337 336 335 334 332 331 330 329 328 328 328 328 327 326 326 326 326 324 324 325 326 327 328 331 334 335 334 335 337 339 339 340 341 341 341 340 340 341 342 341 341 341 345 347 345 348 351 351 349 350 349 350 352 349 348 347 346 346 345 345 346 345 345 345 345 345 344 343 343
330 329 329 328 328 329 329 330 330 332 333 334 333 332 333 334 336 336 335 333 331 330 329 329 328 328 327 326 327 326 326 325 324 323 323 324 325 326 326 328 331 333 333 334 336 339 338 338 340 341 340 340 340 340 341 342 341 342 345 347 347 349 351 351 351 350 347 348 351 349 347 347 346 346 346 346 345 345 345 345 345 344 343 343 343
330 329 328 328 328 328 329 329 329 329 333 334 332 330 331 333 334 335 334 333 331 329 329 328 328 328 327 326 327 327 325 323 322 322 323 323 324 324 325 326 327 329 330 332 334 336 337 339 339 340 340 340 340 340 340 341 342 343 344 345 348 350 349 349 350 349 346 349 352 350 348 348 348 347 347 346 345 345 345 345 345 345 345 345 345
330 329 329 328 329 329 329 329 329 330 333 335 332 330 332 334 334 333 333 332 330 329 329 328 328 327 327 327 326 325 323 321 322 322 322 323 324 324 323 324 325 326 327 329 332 334 336 340 339 338 339 340 340 340 340 341 342 344 345 345 346 348 348 349 351 350 348 349 351 352 351 351 350 349 348 347 347 346 345 346 347 347 347 346 345
330 329 329 329 329 329 328 329 330 331 334 335 333 333 334 335 333 332 332 331 329 329 329 328 327 327 327 327 324 321 320 321 322 323 322 323 324 324 323 323 323 324 324 326 330 334 337 339 337 337 339 340 339 339 340 342 343 344 347 347 346 346 346 348 351 351 349 347 349 351 352 352 352 352 351 350 349 347 346 347 348 347 347 345 343
330 329 329 329 329 328 329 330 331 332 334 333 333 333 335 335 333 332 331 330 328 327 328 327 328 328 328 327 324 320 320 321 323 324 323 323 324 324 324 324 323 323 324 325 327 331 336 339 337 336 338 339 339 339 339 341 344 345 346 345 343 343 345 347 349 350 349 347 348 351 351 351 353 354 354 353 353 351 348 346 347 346 345 344 344
329 328 328 328 328 329 329 330 331 332 332 332 332 332 332 332 331 331 331 330 327 326 327 327 328 329 328 327 325 321 319 322 324 325 325 324 324 324 323 323 323 324 325 325 326 328 332 337 338 336 337 338 339 339 339 340 342 345 345 343 342 342 343 345 347 349 348 348 350 352 350 351 354 356 355 355 355 354 350 347 347 347 345 345 345
328 327 328 327 328 329 328 329 329 329 329 331 331 330 328 327 328 329 330 330 327 326 327 328 329 329 328 328 328 323 321 323 325 326 326 325 324 323 323 324 324 324 324 325 326 327 328 331 335 337 337 338 339 339 338 339 340 343 344 343 342 343 344 344 345 347 347 348 351 353 350 349 351 353 354 355 353 353 351 349 350 351 350 347 345
327 327 328 327 328 330 328 327 327 328 327 328 329 328 327 325 326 328 329 329 327 327 328 329 330 331 330 330 329 325 323 325 325 327 328 326 324 324 324 323 323 323 324 325 327 328 328 329 332 335 337 338 338 339 339 340 340 340 342 342 342 343 344 344 343 345 346 347 349 352 350 347 349 351 352 353 351 349 350 351 352 353 352 349 345
327 328 328 327 328 330 329 328 329 329 328 327 326 326 327 327 327 327 329 329 328 327 328 329 329 331 332 332 330 328 327 327 328 328 328 325 323 324 324 323 323 323 323 324 326 327 328 329 331 334 337 338 338 339 339 340 340 340 341 341 341 343 344 345 344 343 345 347 348 350 349 347 349 351 351 349 349 349 351 352 352 352 352 349 346
328 328 328 327 326 328 329 329 328 328 328 327 326 325 326 327 328 328 330 330 328 325 326 328 329 331 333 333 332 331 330 330 329 327 324 322 322 323 323 323 322 323 323 324 325 325 326 327 328 332 336 338 338 338 339 339 340 341 341 340 341 344 346 348 348 346 346 348 347 347 349 349 349 351 350 347 349 350 350 349 351 352 352 349 346
328 327 327 328 328 327 329 329 327 327 327 327 327 326 325 327 329 330 331 330 327 325 326 328 330 332 333 333 332 331 330 330 329 326 322 322 322 321 322 322 322 323 323 324 324 325 324 325 325 328 332 336 337 337 338 338 339 340 342 341 342 345 347 348 349 346 345 348 347 346 349 350 349 348 348 347 348 349 348 347 350 353 352 349 346
328 328 328 328 328 328 329 329 328 328 327 327 327 326 325 325 327 330 330 328 327 326 326 329 331 333 334 333 331 329 329 329 327 324 321 321 320 320 321 322 322 323 323 323 324 324 324 324 324 327 330 333 337 337 337 338 338 338 341 342 341 343 345 345 346 345 343 345 347 347 348 349 348 346 346 346 346 347 346 346 349 352 351 349 347
327 327 328 328 328 328 328 328 327 327 327 328 328 326 324 324 325 327 328 329 328 326 326 328 329 331 332 332 331 329 329 328 327 324 321 319 318 319 320 321 322 323 323 323 323 324 324 324 326 329 331 332 336 337 337 337 337 336 338 341 341 342 344 344 343 343 342 342 345 347 348 348 348 346 345 345 347 348 346 344 348 351 350 348 347
Wind_Speed
2 4 9 9 8 9 9 9 11 13 13 12 12 12 12 13 14 14 16 16 15 17 19 17 16 13 12 10 9 8 8 8 8 8 9 10 12 14 14 15 16 15 14 13 13 13 13 12 14 15 16 18 18 16 16 17 16 16 15 15 14 13 13 12 11 11 11 11 11 11 10 10 10 9 9 9 9 9 8 9 9 9 9 9 9
5 8 11 9 8 9 8 9 10 11 12 12 11 12 13 13 13 14 16 18 17 17 19 19 19 19 16 11 8 8 7 7 8 9 11 12 12 12 13 14 16 17 16 16 15 14 14 14 14 15 16 18 19 18 17 18 18 17 16 15 15 14 14 13 12 12 12 11 11 11 11 10 10 10 10 10 10 10 10 10 10 10 10 10 10
8 9 11 11 11 10 9 10 12 12 12 12 10 9 11 12 12 13 14 17 19 19 20 20 21 22 18 13 11 10 9 8 9 10 11 13 13 10 12 14 15 17 18 18 17 16 16 16 16 16 17 18 20 20 19 19 19 18 18 17 16 15 15 14 14 13 13 12 12 12 11 11 11 11 11 11 11 11 11 11 11 10 10 10 10
10 12 13 14 14 14 13 15 16 15 15 13 12 9 8 9 9 11 13 15 18 20 21 21 21 21 17 14 13 11 11 11 10 11 12 13 13 11 12 14 14 16 18 19 19 18 18 19 18 18 19 19 19 21 21 20 20 20 19 18 17 16 16 15 15 15 14 14 13 13 12 12 11 11 11 12 12 12 11 11 11 11 11 11 11
13 16 15 14 15 14 13 18 21 19 18 17 16 14 9 9 10 12 15 16 18 20 22 22 21 19 17 15 14 13 12 13 12 13 13 13 14 13 13 14 15 16 18 19 20 20 19 20 20 20 20 20 20 21 21 21 21 20 20 19 19 18 17 17 16 16 15 15 14 14 13 13 12 12 12 11 12 12 12 12 12 11 11 11 12
14 17 17 17 15 13 14 20 25 23 21 21 20 18 15 16 18 18 18 19 19 21 22 23 23 21 19 18 17 17 16 15 14 15 15 14 14 15 15 15 16 17 18 19 20 20 20 20 21 22 22 22 21 21 22 22 22 22 21 21 20 19 19 18 18 17 17 16 15 15 14 14 14 13 12 12 12 12 12 13 12 12 12 12 12
17 18 18 16 13 14 17 21 26 26 24 23 22 21 22 22 22 21 22 21 20 22 20 19 23 23 21 19 18 18 18 18 18 17 16 16 15 15 16 16 16 17 18 19 19 20 21 21 21 22 24 24 23 23 22 23 23 23 22 22 22 21 20 19 19 19 18 18 17 16 16 15 15 14 14 13 13 13 13 14 14 14 14 13 13
20 19 17 16 14 16 18 17 20 25 27 25 23 23 23 21 19 19 19 21 19 18 16 17 21 23 22 19 18 17 18 20 21 20 18 19 18 17 17 17 17 18 18 19 19 19 20 21 22 23 24 25 25 25 24 24 24 24 23 23 23 22 22 21 21 20 20 20 19 18 17 17 16 16 16 16 15 15 15 15 15 15 15 15 15
15 16 15 15 15 14 15 15 14 18 23 23 20 19 20 19 20 20 20 24 24 19 18 20 22 23 22 19 18 17 17 18 19 21 21 23 21 19 18 17 18 19 19 19 18 18 19 19 21 22 24 25 26 27 26 25 25 25 24 24 24 23 23 23 22 22 21 21 20 20 19 18 18 17 17 17 17 16 16 16 16 16 16 16 16
8 9 10 10 12 11 12 13 13 13 15 17 17 17 19 19 22 25 24 24 25 21 20 20 19 20 21 20 18 17 17 17 18 20 23 24 23 21 20 19 20 20 20 21 19 19 19 19 20 21 23 25 27 28 27 27 27 26 26 25 25 25 24 24 24 23 23 22 22 21 20 20 19 18 18 18 17 17 17 17 17 17 17 17 17
6 7 7 7 8 9 10 11 12 12 13 15 17 19 19 20 21 24 23 21 20 19 18 17 16 17 20 20 19 19 20 19 18 20 22 23 22 22 21 21 22 21 21 21 21 20 19 19 21 22 22 24 26 28 29 29 28 28 27 27 27 27 26 26 25 24 24 23 23 22 22 21 20 19 19 18 17 17 17 17 17 17 17 17 17
6 8 9 8 7 7 8 9 11 11 13 15 16 17 18 19 19 20 21 21 20 20 20 18 17 18 20 22 22 21 22 22 20 21 22 22 22 22 21 21 23 23 23 22 22 22 20 19 21 23 23 23 25 28 29 30 29 29 29 29 29 29 28 27 27 26 25 24 23 23 23 22 21 20 19 19 18 18 18 18 17 17 17 17 17
8 9 9 10 10 8 8 8 9 10 12 14 14 15 16 16 16 16 18 19 19 19 18 18 18 17 18 21 23 22 22 23 22 22 23 23 23 23 22 22 22 24 24 23 23 23 22 20 21 23 23 23 24 26 28 30 31 31 30 30 30 30 30 29 28 28 26 26 25 24 23 22 21 21 20 19 19 19 19 19 19 18 18 17 17
9 9 9 10 10 9 9 9 9 11 12 13 13 15 16 16 15 16 16 17 17 16 14 14 16 15 14 14 16 18 20 22 23 22 23 25 26 25 26 25 23 24 25 24 24 24 24 22 22 23 24 24 24 24 26 29 30 31 32 31 31 31 31 31 30 29 28 27 26 24 24 23 22 22 21 21 21 21 21 21 21 20 20 19 18
9 9 9 11 11 12 13 13 13 14 14 14 14 15 15 15 15 16 15 15 16 16 15 15 16 15 12 10 8 9 12 16 19 21 23 25 27 26 26 26 25 25 26 25 24 24 24 23 23 23 25 26 26 25 25 27 29 30 31 32 33 33 32 32 31 31 29 28 27 26 25 24 24 23 23 23 23 22 22 22 22 21 21 20 20
8 9 9 10 11 13 14 15 16 17 17 17 17 16 16 16 16 15 14 14 15 14 14 15 16 14 10 8 7 7 7 8 12 16 20 24 27 27 26 27 27 26 27 28 27 25 24 24 24 23 24 25 26 27 26 27 28 29 30 30 32 33 33 33 33 32 31 30 29 27 26 26 25 25 24 24 23 22 22 22 21 21 21 20 20
8 8 9 10 11 12 12 13 15 15 16 16 15 16 17 17 18 17 15 16 16 15 15 15 16 16 14 10 7 7 6 7 10 11 15 20 23 25 25 24 22 20 23 28 27 26 25 25 25 26 26 25 25 25 26 27 28 29 30 30 31 32 34 34 33 33 32 31 30 29 28 27 27 26 25 24 23 22 22 22 21 21 20 20 20
7 7 8 9 10 11 11 12 12 12 12 11 13 15 15 15 15 14 14 15 16 16 17 16 15 17 20 18 15 13 10 9 8 7 11 15 16 18 20 21 20 18 20 26 26 26 27 27 26 25 26 27 26 25 25 26 27 28 30 30 30 31 33 34 34 34 33 32 31 30 29 28 27 26 25 24 23 23 22 22 21 21 20 20 20
6 7 7 8 9 10 10 11 11 11 11 10 12 14 12 12 13 12 12 14 14 16 18 17 14 15 18 20 21 21 18 14 10 7 8 9 10 13 18 22 23 22 23 26 28 29 29 29 28 25 25 26 26 26 26 26 26 27 29 29 29 30 31 33 33 33 33 33 32 31 30 29 28 27 26 25 24 23 23 22 22 21 21 20 21
6 7 7 8 9 9 9 10 11 11 11 10 12 12 10 11 13 12 13 15 13 15 18 16 14 15 16 16 17 19 20 18 16 12 8 6 8 11 15 20 21 21 21 23 28 32 30 30 31 29 26 25 25 27 28 27 28 28 28 29 30 30 30 31 32 32 33 33 32 32 30 29 29 28 27 27 26 25 25 24 23 22 22 21 22
7 7 7 8 9 9 9 9 10 11 11 10 12 13 11 10 12 11 12 14 13 14 16 15 14 15 16 15 15 16 18 17 17 14 9 8 9 8 11 16 17 18 20 22 27 31 31 31 32 31 28 26 26 29 29 28 29 29 29 30 31 32 31 31 31 31 31 32 32 33 32 30 30 29 29 29 28 27 26 26 24 23 23 23 23
7 7 7 8 9 10 10 9 10 10 10 11 12 13 11 10 11 11 11 13 14 14 15 15 15 16 17 16 15 16 15 14 14 13 9 9 10 9 12 14 14 16 19 23 27 29 31 32 31 32 30 26 26 30 31 30 29 28 29 30 32 34 34 33 32 31 31 30 31 31 31 31 31 30 30 30 29 29 28 27 26 24 24 24 24
7 7 7 8 9 9 9 10 10 11 11 11 12 12 12 12 13 13 13 13 14 15 15 16 16 16 17 17 17 18 15 13 14 15 12 10 10 10 13 16 16 18 18 19 23 25 28 31 28 29 31 29 26 27 29 30 29 28 29 30 31 33 34 35 34 33 33 32 32 32 31 31 31 31 31 31 30 30 30 29 27 26 25 25 25
7 7 7 7 7 7 8 8 9 9 11 12 13 13 13 13 13 13 14 14 13 13 13 15 15 16 17 18 18 19 17 16 16 18 16 15 14 9 10 15 15 17 19 19 24 27 28 30 31 30 32 32 31 30 30 31 30 29 29 29 30 32 32 34 34 34 34 34 34 33 33 32 32 32 32 32 32 31 31 30 29 28 27 26 26
8 8 8 7 7 7 7 7 8 8 10 11 12 13 13 13 13 13 14 14 14 13 14 15 16 17 18 19 19 19 19 19 18 20 21 21 19 11 11 15 14 14 16 17 23 27 25 28 32 31 29 29 32 32 31 30 31 31 31 30 30 32 32 32 33 33 33 33 34 33 33 33 32 33 32 32 33 32 32 31 30 29 28 27 26
8 8 8 8 7 7 7 8 8 9 10 11 12 12 13 12 12 13 13 13 13 14 15 15 16 17 18 19 19 19 21 21 21 22 22 23 22 14 11 13 14 14 15 16 19 19 21 27 30 28 25 27 31 32 30 30 31 31 30 30 31 32 33 33 33 33 33 33 33 33 33 34 33 33 33 33 33 33 33 32 32 31 29 28 27
9 9 9 8 8 8 8 9 9 9 10 11 11 12 12 12 12 12 12 12 12 13 14 15 16 18 18 20 21 21 23 23 24 25 24 24 26 22 15 12 10 10 11 14 16 16 22 28 28 27 26 27 31 34 33 33 33 33 32 32 31 32 34 34 33 33 33 32 33 33 34 34 35 35 35 34 34 34 33 32 32 31 31 30 29
9 9 9 9 9 9 10 9 9 10 10 11 11 12 12 12 12 12 12 12 11 12 14 16 17 18 18 19 20 21 24 25 27 29 27 26 29 29 25 18 11 7 7 9 10 13 21 24 23 27 29 30 31 34 34 33 34 34 33 34 33 31 31 32 32 31 30 30 31 33 34 34 35 35 36 36 35 34 34 33 32 32 31 31 31
8 9 9 10 10 10 11 10 10 11 11 11 12 12 12 12 12 12 12 12 12 13 14 15 17 18 19 20 20 21 25 26 26 27 27 27 28 28 29 29 20 9 7 8 7 9 16 20 20 22 25 29 30 32 33 34 36 35 32 32 32 31 29 30 31 31 29 29 29 31 33 34 35 35 36 36 36 36 35 34 33 32 32 32 31
8 9 9 10 10 11 11 11 11 11 11 11 12 12 12 12 12 11 11 11 12 13 14 15 17 19 20 21 20 21 24 25 24 26 28 28 27 25 28 33 28 17 12 10 9 12 17 20 21 21 21 25 28 29 32 34 36 37 35 33 32 32 30 29 30 31 30 30 30 30 31 32 34 35 35 36 36 36 36 35 34 33 32 32 32
9 9 10 10 11 11 11 12 12 12 12 11 12 13 12 12 13 12 11 12 13 13 14 15 17 18 20 22 22 23 25 26 26 27 28 28 28 27 27 31 30 27 24 17 11 17 22 19 20 23 22 23 26 29 32 33 34 36 35 36 37 34 32 30 30 32 32 31 30 30 30 31 32 33 34 35 36 36 36 35 34 33 33 32 32
9 10 10 11 11 12 12 13 13 13 13 12 12 13 12 12 12 12 12 13 13 13 15 16 17 19 21 22 23 24 25 27 28 28 29 29 29 29 29 30 32 32 31 24 13 17 26 24 22 24 23 22 25 29 32 32 32 34 33 34 36 33 31 31 31 32 32 31 30 30 29 30 30 31 32 34 35 35 35 35 34 34 33 33 32
11 11 11 12 12 12 13 13 14 14 14 13 12 12 12 11 12 12 12 13 14 15 16 17 18 20 21 22 23 24 25 27 28 28 29 29 28 30 32 29 29 30 30 28 19 15 23 28 26 26 26 25 24 25 28 28 27 29 30 30 32 29 27 28 29 30 31 31 31 30 29 30 31 31 32 33 34 35 35 35 34 34 33 33 32
11 11 12 13 13 13 14 14 14 14 14 14 12 11 11 11 11 11 11 13 15 16 17 18 19 20 21 22 23 24 25 26 28 29 30 30 29 30 33 30 28 30 31 32 27 16 16 24 27 27 28 27 25 23 26 28 26 24 25 27 28 26 24 26 27 26 28 30 31 31 30 31 32 32 32 33 34 34 34 34 34 33 33 32 32
11 12 13 14 14 15 15 16 16 15 15 14 12 10 11 12 11 10 11 13 14 15 17 18 19 19 19 21 22 24 24 24 27 28 29 30 28 27 31 33 32 33 33 32 30 22 17 20 25 26 26 27 28 26 27 31 29 25 26 27 27 27 24 23 23 23 25 27 29 31 31 32 32 32 32 32 33 33 33 33 33 33 32 32 31
12 13 13 14 15 15 16 17 17 16 16 14 13 11 11 11 11 10 11 12 13 15 17 17 18 18 18 20 21 23 23 23 24 26 27 30 30 29 32 36 36 37 36 33 32 30 23 20 23 25 25 25 27 26 26 29 30 29 28 28 29 30 26 23 22 22 24 24 26 30 31 31 31 31 31 31 31 31 32 32 33 32 31 30 30
13 14 14 14 15 15 16 17 17 17 18 17 16 15 13 11 11 11 10 11 13 14 15 16 16 17 17 18 20 22 23 23 23 25 26 29 31 32 33 34 35 36 36 33 31 32 29 23 21 23 23 23 25 25 25 26 27 27 28 29 33 32 27 26 25 23 22 23 25 28 29 29 30 30 30 30 30 31 31 31 31 30 29 29 29
14 15 15 15 15 16 17 17 17 18 18 18 17 17 15 13 11 10 10 12 13 14 14 14 15 16 16 16 17 19 20 20 22 26 28 29 29 31 32 32 30 30 32 30 28 29 32 29 24 23 23 23 23 24 24 24 24 24 22 24 29 29 25 26 26 22 21 21 22 25 27 28 30 29 29 29 29 30 30 30 29 29 29 29 28
16 16 15 15 15 16 18 18 18 16 15 16 16 15 15 15 13 10 11 13 14 14 13 13 13 14 14 14 15 15 17 19 22 26 28 29 30 31 31 31 29 26 27 30 28 27 29 29 25 23 24 24 24 25 24 23 24 24 20 18 21 24 23 24 25 25 23 20 20 24 26 28 29 28 28 28 29 29 29 29 29 29 28 28 28
15 15 16 16 15 16 17 18 18 16 14 15 17 15 14 15 13 11 12 13 15 15 13 13 13 12 12 13 13 15 18 21 24 26 27 28 31 32 30 28 27 26 25 26 27 25 23 22 23 22 23 23 24 26 26 23 22 23 23 20 18 19 22 24 25 29 28 22 21 24 27 28 28 28 28 28 29 29 29 29 29 28 28 28 28
15 16 16 16 16 17 18 17 17 15 14 16 18 16 14 13 12 12 13 15 16 15 14 13 12 12 11 12 14 17 21 24 24 25 26 26 27 30 32 29 26 26 25 23 24 25 20 17 19 22 22 20 22 26 26 23 22 22 22 23 20 18 22 23 23 28 31 26 23 24 26 29 29 28 29 30 30 30 29 29 29 29 29 29 28
15 16 16 15 16 17 17 16 15 14 13 14 14 13 14 14 13 13 15 16 16 15 15 14 13 13 11 12 16 20 22 24 25 25 26 26 25 28 32 31 28 26 24 21 22 24 20 16 19 22 21 18 22 27 27 24 24 21 19 21 21 19 20 18 18 25 32 31 27 24 25 28 28 26 29 31 31 31 30 31 31 31 30 29 28
15 15 14 14 15 16 16 16 15 13 11 11 11 10 12 15 16 15 15 17 16 16 16 16 14 13 12 13 17 21 24 26 26 26 26 26 28 31 33 34 32 28 24 21 21 22 21 19 22 25 22 19 23 29 28 24 24 21 19 20 20 20 19 15 12 18 28 34 30 23 24 27 27 25 27 29 29 29 31 32 32 31 30 29 28
14 14 13 14 14 15 15 15 14 13 11 10 11 10 11 14 16 16 16 16 17 17 16 16 15 13 13 14 17 21 25 26 26 26 25 28 32 35 35 35 33 29 26 24 24 23 23 21 23 26 27 23 24 28 28 25 23 22 21 21 21 22 23 19 14 13 22 31 29 21 21 25 25 25 27 29 29 27 29 32 31 30 30 29 28
13 13 13 14 15 14 14 14 14 14 13 12 11 11 11 13 15 16 17 17 18 18 17 16 15 14 14 14 15 20 23 24 26 26 27 31 35 35 34 34 32 30 28 28 28 27 27 26 26 28 29 26 26 28 28 25 23 22 21 21 22 23 23 21 18 15 18 26 27 21 20 24 27 27 27 28 30 30 30 31 29 27 28 29 27
12 12 13 15 14 11 12 13 13 13 13 12 12 12 12 13 14 16 18 17 18 19 18 16 16 15 15 14 16 20 23 25 27 28 29 32 34 32 32 33 33 31 30 28 27 27 28 29 29 31 33 31 30 29 27 25 25 23 22 22 21 23 24 22 20 18 17 23 28 23 16 21 29 30 28 28 31 33 32 31 29 27 28 29 28
12 11 12 13 12 9 9 10 11 12 12 12 14 15 16 16 16 16 17 17 18 20 18 16 17 18 16 16 17 21 23 26 27 28 29 33 33 30 30 33 34 32 30 28 27 27 27 29 30 33 36 35 32 30 27 26 26 24 23 23 21 21 22 20 19 21 18 21 28 24 15 20 28 28 29 33 32 31 31 30 28 28 29 30 29
12 11 11 12 11 9 8 7 9 11 12 15 17 16 17 18 18 18 17 16 17 20 18 17 18 18 17 16 17 19 21 24 26 27 29 32 34 32 31 33 34 33 31 30 30 30 29 31 33 34 36 37 34 32 29 27 26 23 21 22 20 17 17 14 14 19 19 19 27 28 19 18 22 23 28 34 30 25 28 29 27 28 30 30 27
12 12 11 11 11 10 10 9 10 12 13 15 16 17 17 17 18 19 17 15 17 20 19 17 17 16 16 17 19 20 20 22 24 25 27 30 34 35 34 33 33 34 33 32 31 32 32 33 36 38 39 40 38 36 34 30 27 23 19 19 19 15 13 10 9 13 17 18 26 31 23 17 20 22 25 32 30 26 27 28 27 28 30 28 25
13 12 11 11 11 10 10 11 11 12 14 14 15 18 18 16 17 20 19 17 19 23 22 18 14 15 17 19 20 21 21 21 21 23 25 27 31 36 35 34 34 34 36 36 37 38 36 33 34 36 39 42 40 38 36 33 32 27 21 19 20 16 12 11 11 15 19 20 24 28 22 17 21 22 20 23 25 26 28 28 27 30 29 26 23
14 13 12 12 12 11 11 12 12 12 13 13 14 17 18 16 18 22 21 17 18 22 23 19 15 15 17 19 20 20 20 20 21 22 22 23 28 34 34 33 32 35 40 44 45 44 37 30 28 29 34 41 42 39 36 34 34 33 28 22 20 18 15 15 16 14 14 16 22 27 22 17 21 23 21 17 13 17 28 32 30 32 32 27 24
Wind_Direction
317 290 284 291 302 296 286 283 290 300 308 319 328 323 321 328 335 339 333 322 315 312 311 308 301 285 265 252 242 245 245 252 264 260 256 242 226 222 218 217 214 212 214 213 210 212 217 216 215 216 214 215 218 221 222 221 219 219 219 218 218 218 218 218 219 220 221 223 226 229 232 238 242 243 247 250 254 260 262 265 268 272 276 280 282
265 271 279 294 304 288 277 276 280 289 297 307 315 316 317 319 323 328 330 324 316 311 305 302 297 290 282 274 263 262 254 251 263 263 263 259 243 230 223 222 221 216 216 219 218 218 219 220 219 216 216 215 217 220 222 224 223 221 220 219 219 219 220 220 222 225 226 227 229 233 236 239 243 248 253 256 260 263 265 267 269 272 276 279 283
253 259 260 269 277 272 266 265 270 280 288 292 294 301 304 304 307 312 321 322 318 315 305 298 294 289 288 287 277 273 268 257 258 260 260 260 255 238 227 230 230 222 218 220 222 223 222 223 223 217 217 218 218 220 222 225 225 224 223 221 221 221 221 222 224 227 229 231 232 235 238 239 242 247 254 259 262 264 265 266 267 270 272 274 278
258 261 259 262 264 260 257 263 269 275 277 277 276 280 292 295 294 297 305 310 312 316 312 306 300 292 289 286 275 271 270 261 258 260 258 260 261 247 233 235 235 228 223 223 223 224 225 225 225 221 218 219 220 220 221 225 226 227 226 224 224 223 224 224 225 227 230 233 235 237 238 240 242 244 250 256 259 262 263 264 265 266 267 269 271
260 262 266 269 263 253 248 263 274 278 277 276 275 275 273 270 270 280 293 299 298 302 306 304 300 295 291 283 273 270 266 256 256 259 255 256 258 251 244 241 238 234 227 226 227 226 227 227 226 224 220 219 220 220 220 224 226 227 228 228 227 226 226 227 228 230 231 234 236 238 241 243 244 245 249 253 256 258 260 261 263 264 265 266 268
260 264 268 267 259 250 248 264 274 277 277 277 277 277 271 266 266 270 282 292 289 287 292 291 287 286 282 277 269 265 261 255 254 256 254 252 254 254 251 243 236 237 233 229 229 228 229 228 226 225 224 221 220 220 220 222 225 227 229 230 229 229 229 229 232 233 233 235 236 240 243 245 247 247 249 253 256 258 259 260 261 262 264 266 268
266 268 265 260 252 255 259 265 271 272 274 275 275 273 271 271 271 270 278 284 281 281 284 280 278 276 269 265 263 257 253 252 251 252 252 250 252 254 253 248 241 240 235 229 229 229 230 230 228 225 225 224 222 221 220 221 224 227 229 231 232 231 230 231 233 235 236 237 238 241 245 248 250 250 251 254 257 259 260 261 262 262 263 265 268
267 265 260 258 256 262 265 264 268 271 273 274 271 268 265 265 265 262 267 271 269 270 270 271 273 269 261 256 254 252 248 247 247 248 249 248 247 246 247 248 246 243 234 229 231 231 228 229 230 228 226 225 224 223 222 222 223 226 228 230 233 233 231 231 233 236 238 239 241 243 245 248 251 252 254 255 256 259 260 261 263 264 265 266 268
263 261 259 260 260 260 263 263 264 267 269 267 263 260 257 255 257 255 257 263 263 253 251 267 274 266 260 254 249 249 244 239 240 242 244 247 246 244 244 244 245 244 238 235 233 230 230 229 229 230 229 226 225 225 225 224 224 225 227 229 231 234 234 232 233 236 238 240 241 243 245 247 250 253 255 256 257 259 259 259 261 263 266 267 268
266 266 262 261 262 257 258 260 259 258 260 258 254 253 252 253 256 258 260 263 261 252 249 262 267 260 259 258 253 249 243 239 237 238 241 244 245 245 244 243 242 241 240 240 236 229 230 230 227 228 231 229 227 226 225 226 226 226 227 228 229 232 234 234 234 235 237 239 241 243 245 247 250 253 254 256 258 259 259 258 259 260 262 264 266
264 276 273 260 260 261 261 259 257 257 257 256 254 253 253 254 257 260 262 261 258 257 256 260 264 263 265 265 260 253 248 244 238 235 236 238 242 242 242 241 241 239 239 241 240 234 228 227 224 221 226 231 230 228 226 226 226 226 228 229 230 230 232 234 234 235 236 238 240 242 244 246 248 250 252 254 255 257 258 259 258 258 258 259 261
279 293 292 278 270 262 258 256 252 252 253 253 253 254 255 257 261 263 263 264 263 259 257 260 265 270 270 268 264 257 252 247 240 236 234 234 237 239 239 240 240 239 238 237 239 237 229 224 223 220 222 227 230 230 228 227 227 227 228 229 230 231 231 232 233 234 236 237 239 240 242 244 246 248 250 251 253 255 257 258 258 257 257 258 258
279 285 289 286 285 270 255 252 248 248 250 252 253 254 257 259 264 267 264 266 268 264 259 257 258 262 265 265 262 255 250 247 242 236 235 236 235 235 238 238 236 237 237 237 238 237 232 224 221 224 224 221 226 231 230 229 229 228 229 229 229 231 232 233 233 233 234 234 236 238 240 242 244 246 248 251 255 257 259 259 259 258 258 258 258
272 269 266 267 272 268 260 254 247 248 251 253 256 256 257 259 262 264 264 265 266 266 259 248 246 251 257 264 265 258 250 244 242 239 237 239 237 235 237 236 233 234 236 236 235 233 233 228 221 222 224 222 224 227 227 228 230 230 230 229 229 230 231 232 233 233 233 233 233 235 238 241 243 246 249 253 257 260 261 261 260 259 258 258 259
279 276 268 261 263 264 264 260 253 250 247 250 255 257 257 259 259 259 263 264 261 258 251 244 248 255 258 262 270 272 256 243 241 241 238 239 239 238 239 238 234 232 231 235 237 232 230 232 227 222 223 225 224 222 225 227 227 230 231 230 229 230 230 231 232 233 233 233 234 235 238 241 243 247 251 255 258 260 261 260 259 258 259 259 260
293 290 285 279 274 271 268 267 265 261 255 254 256 256 256 258 258 257 262 266 265 263 258 254 254 257 262 268 272 278 272 260 257 250 241 239 240 240 241 240 239 234 226 230 239 236 231 232 231 226 222 221 223 224 226 227 226 228 231 231 230 230 230 230 230 231 232 233 235 237 239 241 244 247 251 254 256 258 258 257 257 257 258 259 261
307 303 300 297 291 287 283 278 274 272 265 260 259 260 262 263 258 252 255 261 268 274 274 269 259 251 252 261 270 269 270 286 288 275 258 248 243 243 244 242 245 245 229 228 236 235 231 233 230 229 226 221 221 222 221 225 226 226 229 231 230 230 231 230 230 230 231 233 234 236 238 241 244 247 249 251 252 254 253 253 253 254 256 258 260
312 314 314 308 305 301 298 291 285 283 274 261 258 261 266 268 260 254 257 260 269 278 276 274 270 256 250 252 258 264 272 289 293 289 282 267 252 249 250 247 252 259 243 235 240 237 232 234 233 227 225 224 223 220 218 222 225 225 228 231 231 231 231 230 230 230 231 232 233 234 237 239 242 244 245 247 248 249 250 250 251 252 253 256 258
322 327 327 321 318 315 311 304 300 298 288 275 269 267 270 273 269 271 274 270 274 277 275 278 280 268 258 255 256 258 261 266 268 276 288 274 257 255 257 255 255 258 251 241 243 243 235 232 234 232 226 225 223 223 222 221 222 223 225 229 230 231 229 228 229 230 231 232 232 233 235 237 239 240 241 243 244 245 246 249 250 251 253 255 257
326 332 332 330 329 326 322 314 308 309 304 293 286 285 285 282 282 285 282 278 277 274 278 287 285 278 276 270 266 263 259 257 258 264 275 274 272 267 265 266 263 260 257 248 247 249 240 229 230 234 232 227 223 224 226 224 223 222 223 225 228 230 230 228 228 229 230 231 232 232 233 236 237 237 239 240 241 243 245 248 250 252 254 256 258
322 327 331 331 332 330 327 323 317 316 314 307 301 298 292 284 288 292 285 283 282 278 282 288 285 284 286 283 279 275 269 264 261 259 258 264 274 275 267 267 264 258 255 256 256 254 247 236 229 232 234 231 228 227 226 227 225 223 222 223 224 226 229 230 230 229 230 230 231 233 233 235 236 236 237 239 241 242 245 247 249 252 255 257 258
311 315 321 324 328 329 327 328 326 323 320 316 311 307 299 289 291 290 283 282 283 283 284 286 287 285 284 283 281 276 274 273 266 258 250 248 255 262 265 265 265 264 261 263 262 255 252 247 235 230 231 230 231 231 230 229 228 224 223 222 222 224 226 228 229 230 231 231 231 232 232 233 235 236 237 239 240 242 243 245 247 251 255 256 257
303 304 308 314 320 322 323 326 329 328 325 322 318 315 310 305 304 296 288 285 284 285 285 285 287 284 282 280 276 274 273 270 269 266 259 249 250 254 260 263 267 270 268 267 267 265 265 263 250 235 229 226 227 231 233 233 231 228 225 223 222 223 225 227 228 230 231 233 234 234 235 234 234 236 237 239 241 242 242 243 246 251 255 255 255
302 303 306 311 314 312 315 320 324 324 323 323 320 318 315 311 309 304 298 293 289 285 282 283 287 287 286 283 279 277 274 269 268 267 263 257 254 253 259 266 270 272 271 270 273 277 276 269 260 247 234 228 226 227 232 236 237 233 227 225 224 223 225 226 228 231 232 235 236 236 236 236 235 236 237 239 240 241 242 243 246 250 253 254 252
305 307 308 312 313 309 312 316 317 319 319 319 318 317 315 312 310 308 304 302 299 293 285 286 290 289 290 290 286 283 281 279 276 274 273 267 258 249 254 263 267 271 273 273 275 279 276 269 265 255 240 235 233 232 232 236 242 240 229 224 225 223 225 226 228 232 233 235 237 236 236 236 236 236 237 238 239 241 242 244 247 250 251 252 250
304 306 306 307 306 304 309 311 313 318 317 317 318 316 314 312 312 311 309 310 307 302 296 295 296 294 294 293 289 284 282 280 276 272 272 270 266 260 255 257 260 266 269 268 266 269 271 272 271 259 245 241 240 237 233 233 242 245 235 226 226 225 225 226 228 231 234 237 238 238 238 237 237 237 237 238 238 240 242 244 247 249 250 250 249
302 302 301 301 300 298 301 304 307 313 315 315 315 314 315 314 314 314 313 315 312 307 306 305 305 304 301 298 293 288 284 280 278 274 266 264 267 267 267 261 255 257 261 261 256 253 261 266 267 261 254 249 245 240 238 237 240 244 240 231 227 226 226 227 229 230 232 236 238 239 240 240 240 239 239 239 238 239 241 243 246 247 247 248 248
297 298 297 297 296 294 294 294 299 305 307 309 310 310 312 312 313 315 315 317 317 313 310 308 308 310 309 306 299 292 290 287 284 279 272 265 263 264 267 266 260 257 258 260 259 255 256 257 259 260 255 252 250 244 240 242 243 243 242 234 226 225 227 227 228 229 231 234 237 238 240 240 241 240 239 239 238 238 239 241 243 243 244 245 245
291 294 297 296 294 290 288 287 291 296 298 303 307 307 308 307 308 310 313 317 319 318 316 312 313 315 314 312 305 297 294 291 285 281 277 273 267 261 258 256 256 259 260 259 258 254 253 253 256 259 255 253 254 250 244 242 243 244 248 242 228 223 226 227 227 229 232 235 236 237 238 239 240 239 239 238 237 237 237 238 239 239 240 241 243
287 289 292 292 290 287 284 284 286 289 293 300 305 306 308 309 305 303 307 314 316 317 317 315 316 317 316 315 310 301 297 294 290 287 284 279 275 266 257 255 254 253 257 262 257 252 254 255 255 257 258 251 249 251 250 246 244 245 250 252 242 230 227 229 229 230 231 232 234 236 237 238 239 238 237 235 234 235 235 235 236 236 237 238 240
290 289 289 288 289 288 287 288 288 289 292 297 304 309 312 309 304 304 310 315 314 313 317 318 316 316 316 315 312 306 302 299 295 291 286 281 278 273 266 261 256 251 252 255 257 256 255 254 254 255 256 251 246 247 249 248 248 247 247 251 249 238 229 229 229 229 232 233 234 236 237 238 239 237 235 233 232 232 233 233 232 232 233 235 238
292 289 287 286 287 288 289 292 293 294 294 294 301 307 310 308 305 307 314 317 315 313 317 319 317 317 317 316 313 308 306 305 300 296 291 285 280 276 270 264 257 251 248 249 252 258 256 254 255 257 256 254 249 245 245 244 243 246 247 248 248 240 227 226 229 231 234 235 235 237 237 237 237 236 234 232 231 231 231 230 230 230 231 234 238
290 288 287 286 287 288 290 292 293 293 293 293 298 302 304 305 304 305 309 312 314 313 314 317 319 320 319 317 315 312 311 309 305 302 299 293 286 279 274 266 256 249 246 244 244 254 258 254 254 256 256 253 247 240 241 244 243 245 244 242 246 244 231 227 231 234 235 233 233 236 237 234 233 232 231 231 231 231 231 231 230 230 231 234 238
287 286 288 287 286 287 287 289 290 290 289 291 295 297 298 300 298 300 305 309 313 313 313 319 322 323 321 319 319 318 318 316 311 308 305 301 296 288 284 278 264 255 249 242 239 244 255 253 251 254 252 249 244 237 237 244 246 244 238 236 243 246 237 230 230 231 231 231 232 235 235 232 230 230 230 230 231 231 231 231 230 230 231 235 238
289 286 287 285 284 285 286 286 285 285 284 287 292 293 294 294 289 294 306 310 312 312 314 321 324 325 325 324 324 324 324 322 317 312 309 305 302 298 295 291 281 266 252 241 239 241 246 249 248 249 248 245 243 239 238 241 242 238 234 236 241 242 238 231 227 227 227 228 230 233 233 231 228 229 230 230 231 231 230 230 229 230 232 235 238
287 286 286 283 282 282 283 285 285 282 281 284 288 287 287 288 287 293 305 308 308 311 316 323 326 326 329 329 329 329 326 324 321 317 315 313 311 308 303 300 295 279 257 243 243 243 244 247 246 246 247 245 243 239 236 236 233 228 227 230 233 236 235 228 224 226 226 228 230 230 228 227 226 227 229 229 229 229 229 229 229 231 232 235 237
291 292 288 286 287 285 284 285 286 284 284 288 292 291 289 289 289 293 302 304 306 311 317 322 324 327 332 333 332 331 328 327 325 323 322 319 317 314 308 304 298 280 258 244 243 243 242 243 245 248 249 248 245 240 234 232 228 224 224 226 228 231 231 230 229 228 226 227 229 227 225 224 223 225 226 227 227 227 227 228 228 230 232 234 237
299 292 288 289 291 291 289 286 283 280 280 285 291 295 296 297 294 294 298 298 301 309 315 318 321 327 335 336 332 332 333 330 328 328 326 322 318 316 316 313 302 281 262 251 244 240 242 241 240 246 251 250 247 239 234 232 228 224 222 222 224 224 224 229 230 225 222 226 228 225 220 217 218 220 223 224 224 225 226 227 229 231 233 235 237
291 290 292 293 293 293 293 289 284 281 278 278 282 285 290 293 292 290 291 292 298 306 309 312 318 325 333 335 331 331 335 335 333 331 329 325 320 317 317 317 313 301 283 268 251 239 240 241 237 237 243 248 248 243 236 232 231 228 221 217 220 220 220 224 224 221 219 219 224 226 220 215 215 217 220 223 225 226 228 230 232 233 235 236 238
289 294 296 296 296 294 293 290 288 287 283 280 279 277 275 278 279 280 283 288 297 302 304 307 314 321 328 331 327 326 334 338 337 333 331 328 323 319 316 315 316 316 307 287 266 248 239 238 236 232 234 242 250 250 241 231 231 229 223 221 222 218 219 222 223 224 220 212 214 223 222 218 216 216 220 224 227 229 230 232 234 235 237 238 240
290 295 298 300 300 295 292 290 291 291 285 279 278 274 265 265 273 279 283 290 296 299 300 301 307 312 318 322 324 329 337 340 337 333 332 330 324 319 316 314 315 316 315 306 283 261 244 236 238 235 231 233 242 247 241 231 228 227 221 224 227 220 216 216 218 222 219 210 210 219 220 216 214 215 219 223 227 228 229 232 234 236 237 238 240
292 296 297 296 294 294 295 294 294 292 284 278 276 266 260 268 278 282 287 294 297 296 296 296 300 306 306 309 320 328 333 335 335 334 333 330 323 318 317 317 317 313 308 303 289 270 256 244 241 239 234 229 232 239 238 230 227 226 218 219 229 229 219 211 213 218 218 215 215 219 220 216 214 214 218 222 226 227 228 231 233 235 236 238 240
293 293 293 294 295 297 298 297 297 295 290 288 288 278 273 279 283 283 288 296 296 293 293 293 295 301 301 302 314 323 325 325 327 330 332 330 324 322 322 322 321 317 306 296 288 279 268 255 245 242 239 233 232 236 236 230 225 223 217 213 222 232 226 212 209 215 216 216 214 216 221 219 214 213 216 219 222 224 227 230 233 236 237 238 241
294 294 294 294 294 294 294 294 296 295 296 293 290 290 290 289 287 283 283 290 294 293 292 290 288 294 300 301 309 321 325 323 322 323 326 327 325 324 325 324 322 320 312 300 289 280 272 264 256 250 243 237 235 236 234 230 225 222 220 212 212 228 233 222 213 214 212 210 209 212 220 217 212 214 216 217 217 219 224 229 233 237 239 239 241
295 296 296 295 295 297 302 307 307 307 307 300 292 293 293 290 288 281 276 281 291 293 291 287 282 285 296 300 304 314 320 320 320 321 322 326 327 326 326 326 323 319 314 306 296 286 275 266 260 254 247 240 238 237 232 229 228 223 221 215 210 221 232 226 219 218 209 204 203 208 218 218 218 222 224 222 221 222 225 229 230 232 236 238 241
292 294 298 299 298 302 309 307 303 305 305 300 299 301 297 293 288 279 274 278 288 293 289 286 281 280 289 297 300 307 312 316 319 320 321 325 327 325 324 325 324 319 314 308 302 295 284 270 258 252 248 243 240 240 234 229 229 226 223 220 216 219 227 228 225 222 211 204 204 204 215 221 219 221 224 224 226 227 228 228 227 227 233 238 243
285 287 294 298 300 314 324 306 293 295 294 293 298 298 295 292 286 279 275 276 285 291 288 284 283 281 284 292 296 302 307 312 317 319 322 326 328 324 322 324 324 319 313 306 301 297 289 275 259 248 244 242 240 241 237 231 230 230 227 227 228 227 228 229 228 225 217 207 204 203 213 220 213 212 219 223 225 227 225 224 225 228 233 239 243
279 281 289 294 296 308 321 309 298 297 295 297 300 298 295 290 280 274 272 272 285 295 292 286 284 281 281 285 291 298 303 307 314 320 324 328 329 325 322 323 324 319 312 305 299 294 289 280 270 256 245 239 237 237 237 234 232 231 229 231 233 228 223 222 224 224 219 207 205 208 215 221 213 211 219 223 221 220 221 222 225 229 234 238 241
275 278 282 284 284 290 299 301 301 299 299 303 302 298 298 291 276 269 270 276 293 302 299 290 283 280 280 284 291 299 302 304 312 322 329 331 330 328 325 322 321 319 314 310 305 299 291 283 276 264 248 239 235 234 234 234 231 228 227 229 226 215 209 213 218 221 219 211 210 212 215 221 219 215 218 220 218 218 220 222 224 229 233 235 238
276 276 276 276 276 279 285 291 296 297 299 301 299 298 300 293 277 270 272 284 298 302 302 297 289 284 286 291 300 305 305 306 314 325 333 335 332 330 328 322 319 320 320 317 312 306 295 284 276 264 248 238 234 232 231 229 227 226 223 224 223 216 209 213 213 215 219 216 210 210 210 216 220 220 220 217 215 216 220 221 223 225 224 223 229
275 275 273 274 277 280 286 293 295 295 297 298 299 304 305 299 288 277 270 276 292 299 303 306 306 300 296 300 307 308 307 312 316 322 331 337 336 334 331 325 319 322 325 322 315 307 295 279 269 257 241 233 231 231 229 226 226 228 226 224 225 223 220 223 224 224 225 221 211 205 204 210 216 217 221 219 207 205 212 214 214 213 211 211 220